Карточка аэропорта UNNT

Внимание!
Информация на этой странице в стадии наполнения.
Если вы не увидели какой-то информации, или заметили неточность - пожалуйста сообщите нам!
Спасибо!
Команда RU-STAFF
Название аэропортаТолмачево
Название аэропорта (англ.)Tolmachevo
Превышение367 ft. (111.9 m.)
Координаты55°0.77999999999989', 82°38.178'
Высота перехода6000ft
Эшелон переходаQNH>=1013hPa:FL70; QNH<1013hPa:FL80; QNH<977hPa:FL90
Коды ответчика5201-5227
Зона ОрВДНовосибирск РПИ (UNNT)
Данные METARUNNT 160828Z 16004MPS 9999 TS BKN038CB 27/19 Q1007 R25/090070 R16/////// NOSIG RMK QFE745/0994
Проноз погоды (TAF)UNNT 160800Z 1609/1709 26003G08MPS 8000 BKN040CB TX29/1609Z TN18/1622Z TEMPO 1609/1618 31007G16MPS -TSRA TEMPO 1702/1709 28008G16MPS -TSRA BKN016CB
NOTAMshow/hide NOTAM
AWOS   TABLE

Информация о ВПП

ВПП Длина ВПП (м.) Покрытие Курс ВПП Частота ILS
073597Асфальтобетон72110.1
253597Асфальтобетон252108.5
163602Цементобетон161109.7
343602Цементобетон341111.1

Диспетчерские позиции

Позывной Наименование органа УВД Частота
UNNT_TWRНовосибирск-Вышка118.5
UNNT_R_APPНовосибирск-Круг122.0
UNNT_GNDНовосибирск-Руление121.7
UNNT_DEL Новосибирск-Деливери135.4
UNNT_APPНовосибирск-Подход127.5



Спутниковое изображение